Weather in Chateauroux

France     46˚49′02″N   1˚41′05″E
temp.,
°C
wind,
m/s
gust,
m/s
humid.,
%
clouds,
%
prec.,
mm/h
press.,
hPa
HPBL,
m
1 december, tue
tue101:00+3˚wsw3652100 0.0 1026143
04:00+4˚wsw61168100 0.2 1023316
07:00+6˚w61194100 0.3 1023376
10:00+6˚n4981100 0.2 1023644
13:00+8˚nnw586867 0.2 1022888
16:00+7˚n587153 0.0 10211053
19:00+4˚nnw4108364 0.0 1021352
22:00+5˚nnw5118499 0.1 1021542
2 december, wed
wed201:00+5˚nnw51188100 0.3 1020432
04:00+3˚nnw399497 0.1 1018342
07:00+4˚nnw499092 0.2 1018478
10:00+5˚nnw4888100 0.3 1018410
13:00+7˚nnw4686100 0.3 1017540
16:00+7˚nnw478395 0.3 1016535
19:00+6˚nw488697 0.4 1016340
22:00+5˚w3688100 0.0 1016256
3 december, thu
thu301:00+5˚wnw4792100 0.4 1015436
04:00+3˚wsw4892100 0.0 1013231
07:00+3˚sw4887100 0.0 1010297
10:00+4˚ssw4887100 0.9 1008366
13:00+6˚ssw51088100 1.9 1005559
16:00+7˚sw5984100 0.1 1000626
19:00+6˚ssw71288100 1.1 996896
22:00+7˚s81487100 1.3 990886
4 december, fri
fri401:00+6˚ssw61287100 4.8 987685
04:00+6˚s71291100 0.9 983697
07:00+6˚ssw81586100 3.1 9811148
10:00+3˚w9149097 1.5 982904
13:00+6˚w797797 1.7 9841036
16:00+6˚w577779 0.3 986950
19:00+3˚wsw488587 0.5 988393
22:00+2˚sw489258 0.0 989241
5 december, sat
sat501:00sw489429 0.0 990204
04:00ssw49930 0.0 991231
07:00+1˚ssw498944 0.0 991263
10:00+2˚ssw61286100 0.1 991589
13:00+5˚ssw71174100 0.1 9911078
16:00+5˚sw71280100 0.3 990907
19:00+5˚sw61288100 0.8 989559
22:00+4˚sw6119092 0.6 989621